Weather History for KOVE - September, 2013

Change the Weather History Date:

Monday, September 30, 2013

  Actual Average Record
Temperature  
Mean Temperature 70 °F -  
Max Temperature 79 °F 88 °F 107 °F (1966)
Min Temperature 64 °F 53 °F 44 °F (1971)
Cooling Degree Days 6    
Growing Degree Days 20 (Base 50)    
Moisture  
Dew Point 58 °F    
Average Humidity 70    
Maximum Humidity 84    
Minimum Humidity 50    
Precipitation  
Precipitation 0.00 in - - ()
Sea Level Pressure  
Sea Level Pressure 30.00 in    
Wind  
Wind Speed 15 mph (SSE)    
Max Wind Speed 22 mph    
Max Gust Speed 30 mph    
Visibility 10 miles    
Events      
Averages and records for this station are not official NWS values.
T = Trace of Precipitation, MM = Missing Value Source: NWS Daily Summary

Daily Weather History Graph

Daily Weather History Graph

Search for Another Location

Airport or City:

Trip Planner

Search our weather history database for the weather conditions in past years. The results will help you decide how hot, cold, wet, or windy it might be!

Date:

Astronomy

Sep. 30, 2013 Rise Set
Actual Time 7:01 AM PDT 6:50 PM PDT
Civil Twilight 6:35 AM PDT 7:16 PM PDT
Nautical Twilight 6:03 AM PDT 7:47 PM PDT
Astronomical Twilight 5:32 AM PDT 8:19 PM PDT
Moon 2:45 AM PDT (9/30) 4:22 PM PDT (9/30)
Length of Visible Light 12h 41m
Length of Day
11h 48m
Waning Crescent, 18% of the Moon is Illuminated
Sep 30
Waning Crescent
Oct 4
New
Oct 11
First Quarter
Oct 18
Full
Oct 26
Last Quarter

Hourly Weather History & Observations

Time (PDT) Temp. Dew Point Humidity Pressure Visibility Wind Dir Wind Speed Gust Speed Precip Events Conditions
12:53 AM 66.9 °F 57.9 °F 73% 30.04 in 10.0 mi SSE 15.0 mph - N/A   Overcast
1:53 AM 66.0 °F 57.0 °F 73% 30.04 in 10.0 mi SSE 13.8 mph - N/A   Overcast
2:53 AM 66.0 °F 57.0 °F 73% 30.02 in 10.0 mi SSE 16.1 mph - N/A   Overcast
3:53 AM 64.9 °F 57.9 °F 78% 30.01 in 10.0 mi SSE 21.9 mph 26.5 mph 0.00 in   Mostly Cloudy
4:53 AM 64.0 °F 57.9 °F 80% 30.00 in 10.0 mi SSE 18.4 mph 25.3 mph 0.00 in   Overcast
5:53 AM 64.0 °F 59.0 °F 84% 30.01 in 10.0 mi SSE 15.0 mph - N/A   Overcast
6:53 AM 64.0 °F 59.0 °F 84% 30.02 in 10.0 mi SSE 17.3 mph - N/A   Overcast
7:53 AM 64.9 °F 59.0 °F 81% 30.03 in 10.0 mi SSE 17.3 mph - N/A   Overcast
8:53 AM 66.0 °F 59.0 °F 78% 30.04 in 10.0 mi SSE 20.7 mph 28.8 mph N/A   Overcast
9:05 AM 66.0 °F 59.0 °F 78% 30.03 in 10.0 mi SSE 20.7 mph - N/A   Overcast
9:53 AM 66.9 °F 59.0 °F 76% 30.04 in 10.0 mi SSE 21.9 mph 29.9 mph N/A   Overcast
10:53 AM 69.1 °F 59.0 °F 70% 30.05 in 10.0 mi SSE 20.7 mph 28.8 mph N/A   Overcast
11:53 AM 71.1 °F 57.9 °F 63% 30.04 in 10.0 mi SE 18.4 mph 27.6 mph N/A   Overcast
12:53 PM 72.0 °F 57.9 °F 61% 30.03 in 10.0 mi SSE 19.6 mph 25.3 mph N/A   Overcast
1:53 PM 73.0 °F 57.9 °F 59% 30.01 in 10.0 mi SE 16.1 mph - N/A   Overcast
2:53 PM 75.9 °F 59.0 °F 56% 30.00 in 10.0 mi SSE 13.8 mph - N/A   Mostly Cloudy
3:53 PM 77.0 °F 57.9 °F 52% 29.98 in 10.0 mi SSE 15.0 mph - N/A   Mostly Cloudy
4:53 PM 77.0 °F 57.0 °F 50% 29.96 in 10.0 mi SSE 11.5 mph - N/A   Mostly Cloudy
5:53 PM 75.9 °F 57.9 °F 54% 29.95 in 10.0 mi South 13.8 mph - N/A   Scattered Clouds
6:53 PM 73.0 °F 59.0 °F 61% 29.94 in 10.0 mi SSE 10.4 mph - N/A   Clear
7:53 PM 71.1 °F 59.0 °F 66% 29.94 in 10.0 mi SE 6.9 mph - N/A   Clear
8:53 PM 68.0 °F 59.0 °F 73% 29.95 in 10.0 mi South 5.8 mph - N/A   Partly Cloudy
9:53 PM 64.9 °F 57.9 °F 78% 29.95 in 10.0 mi SE 3.5 mph - N/A   Clear
10:53 PM 66.9 °F 57.9 °F 73% 29.96 in 10.0 mi ESE 5.8 mph - N/A   Overcast
11:53 PM 66.0 °F 55.9 °F 70% 29.94 in 10.0 mi ESE 4.6 mph - N/A   Mostly Cloudy